[[{"header":{"parameterUnit":"m.s-1","parameterCategory":1,"la1":30.2991,"la2":30.254,"lo1":-89.0895,"lo2":-89.0444,"dy":0.0017,"dx":0.0017,"nx":28,"ny":28,"refTime":"2025-06-07T21:00:00:Z","depth":0,"parameterNumber":2,"parameterNumberName":"U-component_of_WINDS"},"data":[0,0,0,0,0,0,0,0,0,0,0,0,0,0,0,0,0,0,0,0,0,0,0,0,0,0,0,0,0,0,0,0,0,0,0,0,0,0,0,0,0,0,0,0,0,0,0,0,0,0,0,0,0,0,0,0,0,0,3.6344,3.6347,0,3.6595,3.6597,3.66,3.6611,3.6608,3.6605,3.6602,3.6855,3.6865,3.6874,0,0,0,0,0,0,0,0,0,0,0,0,0,3.587,3.5879,3.6344,3.6347,3.635,3.6594,3.6598,3.6601,3.6611,3.6608,3.6604,3.6601,3.6852,3.6864,3.6875,0,0,0,0,0,0,0,0,0,0,0,0,0,3.6094,3.5882,3.6343,3.6385,3.6391,3.6593,3.6598,3.6602,3.6612,3.6608,3.6603,3.6599,3.6849,3.6862,3.6877,3.7054,0,0,3.692,3.6926,0,0,0,0,0,0,0,0,3.6081,3.6111,3.6375,3.6382,3.639,3.6567,3.6524,3.6753,3.6613,3.6528,3.6602,3.6597,3.6763,3.6784,3.6841,3.7065,3.7076,3.6921,3.693,3.6936,3.694,0,0,0,0,0,0,0,3.6066,3.61,3.6443,3.6379,3.6388,3.639,3.6416,3.6567,3.6667,3.6535,3.6536,3.6566,3.6766,3.6827,3.6847,3.708,3.6921,3.6934,3.6942,3.6948,3.7461,3.7466,0,0,0,0,0,0,3.6042,3.6087,3.6435,3.645,3.6221,3.6402,3.6432,3.6514,3.6666,3.6684,3.657,3.6566,3.6805,3.683,3.6855,3.7072,3.6936,3.6949,3.6958,3.7456,3.7463,3.7468,0,0,0,0,0,0,3.6032,3.6073,3.6425,3.627,3.6314,3.6415,3.6507,3.6522,3.6583,3.6692,3.6709,3.6614,3.6802,3.6835,3.7004,3.7081,3.6956,3.6969,3.745,3.7458,3.7465,3.7507,0,0,0,0,0,0,3.6019,3.607,3.6139,3.6271,3.6323,3.6571,3.6512,3.653,3.6608,3.6605,3.6738,3.6756,3.6801,3.6983,3.7018,3.7098,3.698,3.7444,3.7454,3.7463,3.7499,3.7515,3.7529,0,0,0,0,0,3.6002,3.614,3.6142,3.6184,3.6412,3.6575,3.6604,3.6655,3.6614,3.6684,3.6754,3.6751,3.7067,3.7,3.704,3.7126,3.7439,3.7451,3.7462,3.7493,3.7512,3.7528,0,0,0,0,0,0,3.6013,3.6158,3.6162,3.6348,3.6449,3.6577,3.6666,3.6674,3.6788,3.6781,3.6837,3.6867,3.7035,3.7097,3.702,3.7304,3.7248,3.7268,3.7258,3.7277,3.7291,3.7272,3.6992,0,0,0,0,0,3.6038,3.616,3.6279,3.6431,3.6482,3.6565,3.6638,3.6669,3.6775,3.6818,3.69,3.7003,3.7125,3.7205,3.7323,3.7508,3.7537,3.7587,3.7601,3.7613,3.7629,3.7731,3.7754,3.7506,3.7506,3.7505,0,0,3.6089,3.6183,3.6256,3.6436,3.6518,3.6642,3.6601,3.6734,3.6826,3.6838,3.7003,3.7066,3.7185,3.7362,3.7444,3.7419,3.7704,3.7627,3.7636,3.7646,3.7745,3.7768,3.7789,3.7513,3.7512,3.7511,0,0,3.6245,3.6329,3.6465,3.6548,3.6673,3.6728,3.676,3.6887,3.693,3.7097,3.7108,3.7217,3.7427,3.751,3.758,3.7768,3.777,3.7805,3.7882,3.798,3.7999,3.8017,3.8083,3.8106,3.7821,3.7821,3.7821,0,3.6292,3.6481,3.6533,3.6666,3.6744,3.6762,3.6899,3.6977,3.7134,3.7186,3.7156,3.7419,3.75,3.7697,3.7743,3.7799,3.7837,3.779,3.7992,3.8011,3.8028,3.8091,3.8116,3.7824,3.7824,3.7824,3.7823,0,3.6532,3.6662,3.6757,3.6909,3.6998,3.7132,3.7204,3.7287,3.7309,3.7366,3.7535,3.7632,3.7771,3.782,3.7842,3.802,3.8,3.7981,3.7925,3.8054,3.8114,3.8139,3.7829,3.7828,3.7827,3.7826,0,0,3.6702,3.6882,3.6916,3.6985,3.7124,3.7225,3.736,3.7496,3.7566,3.7674,3.7787,3.7964,3.7947,3.8026,3.8058,3.8144,3.8285,3.8114,3.8118,3.8142,3.8485,3.8499,3.8526,3.8288,3.8292,3.8296,3.8475,0,3.6873,3.7114,3.7165,3.7373,3.7493,3.7512,3.7629,3.7726,3.7783,3.7892,3.7954,3.8079,3.8047,3.8095,3.8181,3.825,3.8355,3.8238,3.8392,3.8397,3.8361,3.8558,3.8573,3.8737,3.8499,3.8503,3.8506,0,3.7104,3.7219,3.7439,3.7562,3.7615,3.7719,3.7848,3.7953,3.8063,3.8098,3.8187,3.8209,3.8348,3.8287,3.8478,3.8397,3.8463,3.8506,3.8514,3.853,3.8459,3.8578,3.8791,3.8815,3.8544,3.8541,3.8538,0,3.7205,3.7414,3.7573,3.7631,3.7779,3.7852,3.7917,3.8023,3.8102,3.8214,3.8265,3.8391,3.846,3.8556,3.8612,3.8562,3.8799,3.8742,3.8831,3.8829,3.8879,3.8875,3.9104,3.8923,3.8923,3.8922,3.8922,0,3.739,3.7524,3.762,3.7718,3.7867,3.7924,3.8071,3.8135,3.8229,3.8338,3.8361,3.8462,3.853,3.8641,3.8685,3.8836,3.8867,3.8899,3.8909,3.8897,3.8892,3.894,3.893,3.8929,3.8927,3.8926,3.8925,0,3.7528,3.7598,3.7772,3.7898,3.7933,3.8038,3.8145,3.8239,3.8297,3.8434,3.847,3.8559,3.8691,3.8756,3.8919,3.8949,3.9119,3.9123,3.9082,3.9086,3.9171,3.9162,3.9438,3.9477,3.927,3.9272,3.9274,0,3.7641,3.7744,3.7882,3.7957,3.8024,3.8145,3.8226,3.8286,3.8368,3.8502,3.858,3.8713,3.8822,3.9031,3.9109,3.9234,3.924,3.9328,3.9258,3.9243,3.924,3.9233,3.9243,3.934,3.9342,3.9344,3.9345,0,3.7833,3.7863,3.7979,3.8108,3.8204,3.8308,3.8409,3.8469,3.8545,3.8637,3.8772,3.8857,3.9024,3.9155,3.9286,3.935,3.936,3.9366,3.9393,3.9381,3.9354,3.9369,3.9115,3.9359,3.9358,3.9357,3.9356,3.9356,3.7962,3.8054,3.8166,3.8294,3.8378,3.8473,3.8568,3.8637,3.8752,3.8893,3.8921,3.9065,3.9171,3.9347,3.9416,3.9528,3.9509,3.9548,3.9558,3.9566,3.957,3.9336,3.9552,3.9552,3.9551,3.9551,3.9551,0,3.8155,3.8228,3.8345,3.8488,3.8589,3.8591,3.8704,3.8787,3.8914,3.9013,3.9121,3.9276,3.9403,3.9492,3.9621,3.9693,3.9701,3.9725,3.9719,3.9734,3.9581,3.9544,3.9716,3.9716,3.9716,3.9716,3.9716,3.9716,3.8267,3.8424,3.8467,3.8665,3.8736,3.8878,3.8942,3.9029,3.9109,3.9282,3.9388,3.9446,3.9541,3.9677,3.9793,3.9815,3.9861,3.9885,3.9908,3.9762,3.9745,3.9728,3.9694,3.9895,3.9895,4.0052,4.0053,4.0054]},{"header":{"parameterUnit":"m.s-1","parameterCategory":1,"la1":30.2991,"la2":30.254,"lo1":-89.0895,"lo2":-89.0444,"dy":0.0017,"dx":0.0017,"nx":28,"ny":28,"refTime":"2025-06-07T21:00:00:Z","depth":0,"parameterNumber":3,"parameterNumberName":"V-component_of_WINDS"},"data":[0,0,0,0,0,0,0,0,0,0,0,0,0,0,0,0,0,0,0,0,0,0,0,0,0,0,0,0,0,0,0,0,0,0,0,0,0,0,0,0,0,0,0,0,0,0,0,0,0,0,0,0,0,0,0,0,0,0,6.6077,6.6078,0,6.6155,6.6156,6.6157,6.6135,6.6134,6.6132,6.6131,6.6202,6.6205,6.6208,0,0,0,0,0,0,0,0,0,0,0,0,0,6.5898,6.5902,6.6077,6.6078,6.6079,6.6155,6.6156,6.6157,6.6136,6.6134,6.6132,6.613,6.62,6.6204,6.6208,0,0,0,0,0,0,0,0,0,0,0,0,0,6.5976,6.5903,6.6077,6.6078,6.6079,6.6155,6.6156,6.6158,6.6136,6.6134,6.6131,6.6129,6.6199,6.6204,6.6209,6.6287,0,0,6.6224,6.6226,0,0,0,0,0,0,0,0,6.5972,6.5983,6.6077,6.6078,6.6079,6.6133,6.6119,6.62,6.6137,6.6114,6.6131,6.6128,6.618,6.6187,6.6206,6.629,6.6293,6.6225,6.6228,6.623,6.6231,0,0,0,0,0,0,0,6.5966,6.5979,6.6108,6.6078,6.6079,6.6071,6.6079,6.6135,6.6159,6.6116,6.6114,6.6124,6.618,6.6201,6.6207,6.6294,6.6224,6.6229,6.6232,6.6234,6.6442,6.6445,0,0,0,0,0,0,6.5962,6.5975,6.6105,6.611,6.6019,6.6076,6.6085,6.6118,6.6158,6.6162,6.6126,6.6123,6.6194,6.6202,6.621,6.6302,6.623,6.6234,6.6237,6.644,6.6443,6.6446,0,0,0,0,0,0,6.5958,6.5973,6.6102,6.6042,6.6058,6.6081,6.6118,6.6121,6.6142,6.6166,6.617,6.6144,6.6192,6.6203,6.6268,6.6304,6.6237,6.6241,6.6437,6.6441,6.6444,6.6487,0,0,0,0,0,0,6.5953,6.5972,6.6004,6.6043,6.6061,6.6162,6.6121,6.6124,6.6152,6.6148,6.6184,6.6187,6.6191,6.626,6.6273,6.6309,6.6245,6.6434,6.6439,6.6443,6.6482,6.6492,6.65,0,0,0,0,0,6.5947,6.6012,6.6006,6.6022,6.6103,6.6164,6.6174,6.618,6.6155,6.6186,6.6201,6.6186,6.6298,6.6267,6.6281,6.632,6.6431,6.6437,6.6443,6.6478,6.649,6.6499,0,0,0,0,0,0,6.5973,6.6017,6.6011,6.6092,6.6125,6.616,6.6199,6.6192,6.623,6.6225,6.6228,6.6236,6.6302,6.6317,6.6282,6.6396,6.6361,6.6369,6.6383,6.6394,6.6403,6.6396,6.6249,0,0,0,0,0,6.5989,6.6039,6.6073,6.614,6.6157,6.6176,6.6202,6.6205,6.6237,6.625,6.627,6.63,6.6342,6.6369,6.6409,6.6485,6.649,6.6518,6.6527,6.6534,6.654,6.6579,6.6591,6.6464,6.6464,6.6464,0,0,6.6021,6.6051,6.6082,6.6146,6.6172,6.622,6.6187,6.6239,6.6274,6.6257,6.632,6.6336,6.6369,6.6439,6.6471,6.6454,6.6577,6.6541,6.6547,6.6549,6.6586,6.6598,6.6609,6.6468,6.6468,6.6467,0,0,6.6103,6.6133,6.6191,6.6218,6.6259,6.6271,6.6285,6.6322,6.6332,6.6396,6.6384,6.6423,6.6496,6.652,6.6541,6.6632,6.6619,6.6645,6.6689,6.6727,6.6737,6.6746,6.6776,6.6787,6.6652,6.6652,6.6652,0,6.6137,6.6212,6.6221,6.6275,6.6302,6.6293,6.635,6.6374,6.6424,6.6442,6.6423,6.6513,6.6535,6.6609,6.6632,6.665,6.6664,6.664,6.6735,6.6744,6.6752,6.6781,6.6793,6.6655,6.6654,6.6654,6.6654,0,6.625,6.6302,6.6344,6.6396,6.6428,6.6483,6.6497,6.6528,6.6527,6.6539,6.6602,6.6629,6.6673,6.6691,6.6689,6.6765,6.6753,6.6735,6.6699,6.6767,6.6794,6.6805,6.6659,6.6658,6.6657,6.6656,0,0,6.635,6.6408,6.6422,6.6445,6.6489,6.6527,6.658,6.6627,6.6652,6.6686,6.6729,6.679,6.6774,6.6798,6.6799,6.6833,6.69,6.681,6.6811,6.6824,6.6982,6.6993,6.7006,6.6893,6.6895,6.6897,6.6978,0,6.6435,6.6532,6.6542,6.6627,6.6673,6.6664,6.671,6.674,6.6753,6.6791,6.6804,6.6848,6.6824,6.6838,6.6871,6.6885,6.6931,6.688,6.6928,6.693,6.6919,6.7021,6.7033,6.7109,6.6989,6.6991,6.6992,0,6.6546,6.6587,6.6678,6.6715,6.6734,6.6776,6.6818,6.6856,6.6888,6.6895,6.6923,6.6919,6.697,6.6935,6.7003,6.6968,6.6988,6.6998,6.7001,6.7004,6.6964,6.7024,6.7133,6.7144,6.7009,6.7008,6.7006,0,6.6607,6.6685,6.6749,6.6769,6.6814,6.6842,6.6862,6.6893,6.6919,6.6955,6.6972,6.7012,6.7033,6.7063,6.7069,6.7044,6.7137,6.7103,6.7141,6.7141,6.7159,6.7158,6.7271,6.7177,6.7176,6.7176,6.7176,0,6.6699,6.6754,6.6777,6.6816,6.6876,6.6886,6.6944,6.6961,6.6989,6.7028,6.7023,6.7059,6.7066,6.7103,6.7108,6.7163,6.7173,6.7177,6.7177,6.7177,6.7176,6.7188,6.7182,6.7179,6.7179,6.7178,6.7177,0,6.6776,6.6794,6.6863,6.6901,6.6911,6.6954,6.6984,6.702,6.7033,6.7083,6.7095,6.7114,6.7157,6.7167,6.7218,6.7221,6.7285,6.7281,6.7275,6.7274,6.7311,6.7306,6.7435,6.7451,6.7348,6.7349,6.735,0,6.6833,6.6875,6.6918,6.6946,6.6968,6.7012,6.704,6.705,6.7078,6.7119,6.7149,6.7192,6.7227,6.7296,6.7312,6.7351,6.7346,6.7389,6.7351,6.7349,6.7344,6.734,6.7343,6.7395,6.7396,6.7397,6.7397,0,6.693,6.6937,6.6979,6.7024,6.7058,6.7094,6.7127,6.7149,6.7163,6.7195,6.7241,6.7268,6.7321,6.7363,6.7402,6.7418,6.7409,6.741,6.742,6.7418,6.7412,6.7413,6.7291,6.7406,6.7405,6.7404,6.7404,6.7404,6.6996,6.7033,6.707,6.7116,6.7143,6.7174,6.721,6.7228,6.7268,6.7313,6.7316,6.7365,6.7394,6.7446,6.7465,6.7501,6.7487,6.7503,6.7507,6.751,6.7512,6.7409,6.7508,6.7508,6.7508,6.7507,6.7507,0,6.7091,6.7114,6.7157,6.7206,6.7242,6.7234,6.7271,6.73,6.7344,6.7374,6.741,6.7461,6.7502,6.7522,6.7561,6.7586,6.7583,6.7596,6.7593,6.7596,6.7523,6.7509,6.7598,6.7598,6.7598,6.7598,6.7598,6.7598,6.7144,6.7206,6.7217,6.7291,6.7312,6.7363,6.7384,6.7412,6.7436,6.7495,6.753,6.7544,6.7568,6.761,6.7646,6.765,6.7663,6.7678,6.768,6.7611,6.7602,6.7593,6.7579,6.7682,6.7682,6.775,6.7751,6.7751]}]]